Chillicothe, MO

3:28 AM CDT on October 21, 2017 (GMT -0500)
Chillicothe

Weather History for KCDJ - March, 2013

Change the Weather History Date:

Thursday, March 21, 2013

  Actual Average (KIRK) Record (KIRK)
Temperature  
Mean Temperature 26 °F -  
Max Temperature 36 °F 51 °F 83 °F (1938)
Min Temperature 17 °F 31 °F 8 °F (1965)
Degree Days  
Heating Degree Days 38    
Moisture  
Dew Point 13 °F    
Average Humidity 57    
Maximum Humidity 84    
Minimum Humidity 37    
Precipitation  
Precipitation 0.00 in - - ()
Sea Level Pressure  
Sea Level Pressure 30.10 in    
Wind  
Wind Speed 3 mph (ESE)    
Max Wind Speed 8 mph    
Max Gust Speed -    
Averages and records for this station are not official NWS values.
T = Trace of Precipitation, MM = Missing Value Source: NWS Daily Summary

Daily Weather History Graph

Daily Weather History Graph

Search for Another Location

Airport or City:

Trip Planner

Search our weather history database for the weather conditions in past years. The results will help you decide how hot, cold, wet, or windy it might be!

Date:

Astronomy

Mar. 21, 2013 Rise Set
Actual Time 7:15 AM CDT 7:27 PM CDT
Civil Twilight 6:48 AM CDT 7:54 PM CDT
Nautical Twilight 6:17 AM CDT 8:26 PM CDT
Astronomical Twilight 5:45 AM CDT 8:58 PM CDT
Moon 1:58 PM CDT 3:37 AM CDT
Length of Visible Light 13h 05m
Length of Day
12h 11m
Waxing Gibbous, 69% of the Moon is Illuminated
Mar 21
Waxing Gibbous
Mar 27
Full
Apr 2
Last Quarter
Apr 10
New
Apr 18
First Quarter

Hourly Weather History & Observations

Time (CDT) Temp. Windchill Dew Point Humidity Pressure Visibility Wind Dir Wind Speed Gust Speed Precip Events Conditions
12:52 AM 19.0 °F - 12.9 °F 77% 30.21 in - Calm Calm - N/A   Unknown
1:52 AM 19.9 °F 13.4 °F 10.9 °F 68% 30.18 in - NE 4.6 mph - N/A   Unknown
2:52 AM 19.9 °F - 12.0 °F 71% 30.19 in - Calm Calm - N/A   Unknown
3:52 AM 18.0 °F - 14.0 °F 84% 30.18 in - Calm Calm - N/A   Unknown
4:52 AM 17.1 °F - 12.0 °F 81% 30.16 in - Calm Calm - N/A   Unknown
5:52 AM 19.0 °F 13.9 °F 12.0 °F 74% 30.16 in - NE 3.5 mph - N/A   Unknown
6:52 AM 19.0 °F 12.3 °F 10.9 °F 71% 30.16 in - ENE 4.6 mph - N/A   Unknown
7:52 AM 19.9 °F 13.4 °F 12.0 °F 71% 30.18 in - ENE 4.6 mph - N/A   Unknown
8:52 AM 21.9 °F 13.4 °F 12.0 °F 66% 30.18 in - ESE 6.9 mph - N/A   Unknown
9:52 AM 23.0 °F 14.7 °F 12.0 °F 63% 30.17 in - ESE 6.9 mph - N/A   Unknown
10:52 AM 26.1 °F 19.4 °F 14.0 °F 60% 30.16 in - East 5.8 mph - N/A   Unknown
11:52 AM 28.0 °F 20.0 °F 14.0 °F 56% 30.13 in - ESE 8.1 mph - N/A   Unknown
12:52 PM 30.9 °F 25.2 °F 14.0 °F 50% 30.10 in - ESE 5.8 mph - N/A   Unknown
1:52 PM 33.1 °F 26.1 °F 12.0 °F 42% 30.07 in - East 8.1 mph - N/A   Unknown
2:52 PM 34.0 °F 28.8 °F 10.9 °F 38% 30.04 in - SE 5.8 mph - N/A   Unknown
3:52 PM 35.1 °F 29.3 °F 12.9 °F 40% 30.02 in - ESE 6.9 mph - N/A   Unknown
4:52 PM 35.1 °F 29.3 °F 10.9 °F 37% 30.02 in - SE 6.9 mph - N/A   Unknown
5:52 PM 36.0 °F 30.3 °F 14.0 °F 41% 30.00 in - SSE 6.9 mph - N/A   Unknown
6:52 PM 36.0 °F 32.1 °F 12.0 °F 37% 30.01 in - SSE 4.6 mph - N/A   Unknown
7:52 PM 35.1 °F 32.2 °F 14.0 °F 42% 30.01 in - ESE 3.5 mph - N/A   Unknown
8:52 PM 35.1 °F - 17.1 °F 48% 30.03 in - Calm Calm - N/A   Unknown
9:52 PM 34.0 °F 29.8 °F 18.0 °F 52% 30.04 in - East 4.6 mph - N/A   Unknown
10:52 PM 34.0 °F 29.8 °F 18.0 °F 52% 30.04 in - ESE 4.6 mph - N/A   Unknown
11:52 PM 33.1 °F 27.7 °F 18.0 °F 54% 30.05 in - ESE 5.8 mph - N/A   Unknown